Regional Weather Roundup
Issued by NWS

Home | Current Version | Previous Version | Graphics & Text | Print | Product List | Glossary On
Versions: 1 2 3 4 5 6 7 8 9 10 11 12 13 14 15 16 17 18 19 20 21 22 23 24 25 26 27 28
000
ASUS45 KCYS 151310
RWRWY

WYOMING REGIONAL WEATHER ROUNDUP
NATIONAL WEATHER SERVICE CHEYENNE WY
700 AM MDT TUE AUG 15 2017

NOTE:  "FAIR" INDICATES FEW OR NO CLOUDS BELOW 12,000 FEET
WITH NO SIGNIFICANT WEATHER AND/OR OBSTRUCTIONS TO VISIBILITY.

WYZ001-151400-
YELLOWSTONE NATIONAL PARK

CITY           SKY/WX    TMP DP  RH WIND       PRES   REMARKS
LK YELLOWSTONE   N/A     39  39 100 CALM      30.11S
W YELLOWSTONE  NOT AVBL

$$
WYZ002>013-054>058-071-098>099-151400-
NORTHERN WYOMING

CITY           SKY/WX    TMP DP  RH WIND       PRES   REMARKS
JACKSON        FAIR      44  42  93 CALM      30.06R
CODY           LGT RAIN  53  49  86 N8        30.00R
GREYBULL       CLOUDY    58  56  93 NW3       29.90R
WORLAND        LGT RAIN  56  56 100 CALM      29.92S
SHERIDAN       CLOUDY    59  54  83 CALM      29.92R
BUFFALO        CLOUDY    59  51  75 N9        29.95R
GILLETTE       FAIR      56  55  97 W6        29.90R
HULETT         LGT RAIN  59  54  82 CALM      29.90F
NEWCASTLE      FAIR      59  59 100 N9G17     29.88F

$$
WYZ014>020-022>026-101>103-151400-
CENTRAL WYOMING

CITY           SKY/WX    TMP DP  RH WIND       PRES   REMARKS
BIG PINEY      CLOUDY    48  48 100 W3        30.07S
PINEDALE       CLOUDY    46  46 100 W3        30.08R
DUBOIS         FAIR      46  37  71 NW8       30.04R
LANDER           N/A    N/A N/A N/A MISG      29.97S
RIVERTON       FAIR      52  51  97 NW3       29.96R
CASPER         LGT RAIN  56  55  97 N5        29.95F
DOUGLAS        CLOUDY    58  56  93 W8        29.95R

$$
WYZ021-027>030-104>119-151400-
SOUTHERN WYOMING

CITY           SKY/WX    TMP DP  RH WIND       PRES   REMARKS
EVANSTON       FAIR      48  48 100 N5        30.06F
KEMMERER         N/A     46  45  93 CALM      30.07F
FORT BRIDGER   FAIR      49  49 100 CALM      30.09S
ROCK SPRINGS   FAIR      50  46  86 W3        30.05S
RAWLINS        FAIR      51  48  89 SW7       30.05R
SARATOGA       CLOUDY    52  52 100 SE6       30.08S
LARAMIE        FAIR      49  46  90 NW12      30.06R
CHEYENNE       FAIR      54  48  80 W6        29.98R
TORRINGTON     FAIR      59  57  93 CALM      29.86F
PINE BLUFFS    FAIR      55  55 100 NW3       29.94S

$$




USA.gov is the U.S. government's official web portal to all federal, state and local government web resources and services.